When you browse on this site, cookies collect data to enhance your experience and personalize the content and advertising you see.
Visit our Privacy Policy to learn more. By continuing to use the site, you agree to this use of cookies and data.
  • In Deutschland
  • Länderverzeichnis
  • Für 7 Tage
  • Wassertemperatur
  • Wetterkarte
  • Widgets
  • user-avatar
    Anmelden

    Stündliche Wetter Hamburg

    Heute, 20 August, Dienstag

    Zeit Temperatur Niederschläge Wind Luftdruck Luftfeuchtigkeit
    00:00 +14°C° 0 mm 2 m/S 762 mmHg 90%
    01:00 +14°C° 0 mm 2 m/S 762 mmHg 91%
    02:00 +14°C° 0 mm 2 m/S 762 mmHg 91%
    03:00 +13°C° 0 mm 2 m/S 763 mmHg 92%
    04:00 +13°C° 0 mm 2 m/S 763 mmHg 92%
    05:00 +13°C° 0 mm 3 m/S 763 mmHg 89%
    06:00 +13°C° 0 mm 3 m/S 763 mmHg 86%
    07:00 +14°C° 0 mm 3 m/S 763 mmHg 84%
    08:00 +17°C° 0 mm 4 m/S 763 mmHg 78%
    09:00 +18°C° 0 mm 4 m/S 764 mmHg 72%
    10:00 +20°C° 0 mm 4 m/S 764 mmHg 65%
    11:00 +20°C° 0.1 mm 4 m/S 764 mmHg 63%
    12:00 +21°C° 0.1 mm 4 m/S 764 mmHg 60%
    13:00 +21°C° 0.1 mm 4 m/S 764 mmHg 58%
    14:00 +21°C° 0.1 mm 4 m/S 765 mmHg 59%
    15:00 +21°C° 0.1 mm 4 m/S 765 mmHg 60%
    16:00 +21°C° 0.1 mm 3 m/S 765 mmHg 61%
    17:00 +20°C° 0.2 mm 3 m/S 765 mmHg 67%
    18:00 +18°C° 0.2 mm 2 m/S 765 mmHg 74%
    19:00 +18°C° 0.2 mm 1 m/S 765 mmHg 81%
    20:00 +16°C° 0 mm 1 m/S 766 mmHg 83%
    21:00 +15°C° 0 mm 1 m/S 766 mmHg 86%
    22:00 +15°C° 0 mm 1 m/S 767 mmHg 89%
    23:00 +14°C° 0 mm 1 m/S 767 mmHg 90%

    Morgen, 21 August, Mittwoch

    Zeit Temperatur Niederschläge Wind Luftdruck Luftfeuchtigkeit
    00:00 +14°C° 0 mm 1 m/S 767 mmHg 92%
    01:00 +13°C° 0 mm 1 m/S 767 mmHg 94%
    02:00 +13°C° 0 mm 2 m/S 767 mmHg 94%
    03:00 +12°C° 0 mm 2 m/S 767 mmHg 95%
    04:00 +12°C° 0 mm 2 m/S 768 mmHg 96%
    05:00 +12°C° 0 mm 2 m/S 768 mmHg 93%
    06:00 +13°C° 0 mm 2 m/S 768 mmHg 91%
    07:00 +13°C° 0 mm 3 m/S 768 mmHg 88%
    08:00 +14°C° 0 mm 3 m/S 769 mmHg 81%
    09:00 +17°C° 0 mm 3 m/S 769 mmHg 74%
    10:00 +18°C° 0 mm 3 m/S 769 mmHg 68%
    11:00 +19°C° 0 mm 3 m/S 769 mmHg 64%
    12:00 +20°C° 0 mm 4 m/S 769 mmHg 60%
    13:00 +21°C° 0 mm 4 m/S 768 mmHg 57%
    14:00 +21°C° 0.1 mm 3 m/S 768 mmHg 59%
    15:00 +21°C° 0.1 mm 3 m/S 768 mmHg 61%
    16:00 +21°C° 0.1 mm 3 m/S 768 mmHg 63%
    17:00 +19°C° 0.1 mm 2 m/S 768 mmHg 69%
    18:00 +18°C° 0.1 mm 2 m/S 768 mmHg 75%
    19:00 +18°C° 0.1 mm 1 m/S 768 mmHg 81%
    20:00 +16°C° 0 mm 1 m/S 768 mmHg 84%
    21:00 +15°C° 0 mm 1 m/S 769 mmHg 86%
    22:00 +14°C° 0 mm 0 m/S 769 mmHg 89%
    23:00 +14°C° 0 mm 1 m/S 769 mmHg 90%

    übermorgen, 22 August, Donnerstag

    Zeit Temperatur Niederschläge Wind Luftdruck Luftfeuchtigkeit
    00:00 +14°C° 0 mm 1 m/S 769 mmHg 90%
    01:00 +14°C° 0 mm 1 m/S 769 mmHg 91%
    02:00 +13°C° 0 mm 1 m/S 768 mmHg 91%
    03:00 +13°C° 0 mm 1 m/S 768 mmHg 91%
    04:00 +13°C° 0 mm 1 m/S 768 mmHg 91%
    05:00 +14°C° 0 mm 2 m/S 768 mmHg 88%
    06:00 +14°C° 0 mm 2 m/S 768 mmHg 85%
    07:00 +15°C° 0 mm 2 m/S 768 mmHg 83%
    08:00 +17°C° 0 mm 2 m/S 768 mmHg 75%
    09:00 +18°C° 0 mm 2 m/S 768 mmHg 68%
    10:00 +20°C° 0 mm 2 m/S 768 mmHg 60%
    11:00 +21°C° 0 mm 2 m/S 768 mmHg 56%
    12:00 +23°C° 0 mm 2 m/S 767 mmHg 51%
    13:00 +25°C° 0 mm 3 m/S 767 mmHg 47%
    14:00 +25°C° 0 mm 3 m/S 767 mmHg 48%
    15:00 +25°C° 0 mm 3 m/S 767 mmHg 49%
    16:00 +25°C° 0 mm 3 m/S 767 mmHg 49%
    17:00 +24°C° 0 mm 2 m/S 767 mmHg 57%
    18:00 +21°C° 0 mm 2 m/S 767 mmHg 64%
    19:00 +20°C° 0 mm 2 m/S 767 mmHg 72%
    20:00 +19°C° 0 mm 1 m/S 767 mmHg 76%
    21:00 +18°C° 0 mm 1 m/S 768 mmHg 80%
    22:00 +16°C° 0 mm 1 m/S 768 mmHg 84%
    23:00 +15°C° 0 mm 1 m/S 768 mmHg 85%

    23 August, Freitag

    Zeit Temperatur Niederschläge Wind Luftdruck Luftfeuchtigkeit
    00:00 +14°C° 0 mm 0 m/S 768 mmHg 86%
    01:00 +13°C° 0 mm 0 m/S 768 mmHg 88%
    02:00 +13°C° 0 mm 0 m/S 768 mmHg 88%
    03:00 +13°C° 0 mm 0 m/S 768 mmHg 88%
    04:00 +13°C° 0 mm 0 m/S 768 mmHg 88%
    05:00 +14°C° 0 mm 0 m/S 768 mmHg 85%
    06:00 +15°C° 0 mm 0 m/S 768 mmHg 82%
    07:00 +15°C° 0 mm 0 m/S 769 mmHg 79%
    08:00 +17°C° 0 mm 0 m/S 769 mmHg 72%
    09:00 +19°C° 0 mm 0 m/S 769 mmHg 64%
    10:00 +23°C° 0 mm 1 m/S 769 mmHg 57%
    11:00 +24°C° 0 mm 1 m/S 769 mmHg 53%
    12:00 +25°C° 0 mm 1 m/S 769 mmHg 48%
    13:00 +27°C° 0 mm 1 m/S 768 mmHg 43%
    14:00 +27°C° 0 mm 1 m/S 768 mmHg 42%
    15:00 +27°C° 0 mm 1 m/S 768 mmHg 41%
    16:00 +27°C° 0 mm 1 m/S 768 mmHg 40%
    17:00 +25°C° 0 mm 1 m/S 768 mmHg 48%
    18:00 +24°C° 0 mm 1 m/S 767 mmHg 56%
    19:00 +21°C° 0 mm 2 m/S 767 mmHg 63%
    20:00 +20°C° 0 mm 2 m/S 767 mmHg 67%
    21:00 +19°C° 0 mm 2 m/S 768 mmHg 71%
    22:00 +18°C° 0 mm 2 m/S 768 mmHg 75%
    23:00 +17°C° 0 mm 2 m/S 768 mmHg 76%

    24 August, Samstag

    Zeit Temperatur Niederschläge Wind Luftdruck Luftfeuchtigkeit
    00:00 +17°C° 0 mm 2 m/S 767 mmHg 78%
    01:00 +17°C° 0 mm 2 m/S 767 mmHg 79%
    02:00 +16°C° 0 mm 2 m/S 767 mmHg 79%
    03:00 +16°C° 0 mm 2 m/S 767 mmHg 78%
    04:00 +16°C° 0 mm 2 m/S 766 mmHg 78%
    05:00 +17°C° 0 mm 2 m/S 766 mmHg 76%
    06:00 +17°C° 0 mm 2 m/S 766 mmHg 75%
    07:00 +18°C° 0 mm 2 m/S 766 mmHg 73%
    08:00 +20°C° 0 mm 3 m/S 766 mmHg 67%
    09:00 +22°C° 0 mm 3 m/S 766 mmHg 62%
    10:00 +24°C° 0 mm 3 m/S 766 mmHg 56%
    11:00 +25°C° 0 mm 3 m/S 765 mmHg 53%
    12:00 +26°C° 0 mm 3 m/S 765 mmHg 49%
    13:00 +27°C° 0 mm 4 m/S 765 mmHg 46%
    14:00 +28°C° 0 mm 3 m/S 764 mmHg 46%
    15:00 +28°C° 0 mm 3 m/S 764 mmHg 46%
    16:00 +28°C° 0 mm 3 m/S 764 mmHg 46%
    17:00 +26°C° 0 mm 3 m/S 763 mmHg 53%
    18:00 +25°C° 0 mm 2 m/S 763 mmHg 60%
    19:00 +23°C° 0 mm 2 m/S 763 mmHg 66%
    20:00 +21°C° 0 mm 2 m/S 763 mmHg 68%
    21:00 +20°C° 0 mm 2 m/S 763 mmHg 69%
    22:00 +19°C° 0 mm 2 m/S 763 mmHg 71%
    23:00 +18°C° 0 mm 2 m/S 763 mmHg 72%

    25 August, Sonntag

    Zeit Temperatur Niederschläge Wind Luftdruck Luftfeuchtigkeit
    00:00 +18°C° 0 mm 2 m/S 763 mmHg 74%
    01:00 +18°C° 0 mm 2 m/S 763 mmHg 75%
    02:00 +17°C° 0 mm 2 m/S 762 mmHg 76%
    03:00 +17°C° 0 mm 2 m/S 762 mmHg 78%
    04:00 +18°C° 0 mm 1 m/S 762 mmHg 79%
    05:00 +18°C° 0 mm 1 m/S 761 mmHg 79%
    06:00 +19°C° 0 mm 1 m/S 761 mmHg 78%
    07:00 +19°C° 0 mm 1 m/S 761 mmHg 77%
    08:00 +21°C° 0 mm 1 m/S 761 mmHg 71%
    09:00 +23°C° 0 mm 1 m/S 761 mmHg 65%
    10:00 +25°C° 0 mm 1 m/S 762 mmHg 58%
    11:00 +27°C° 0 mm 1 m/S 761 mmHg 54%
    12:00 +28°C° 0 mm 1 m/S 761 mmHg 50%
    13:00 +28°C° 0 mm 0 m/S 761 mmHg 45%
    14:00 +30°C° 0 mm 1 m/S 761 mmHg 44%
    15:00 +29°C° 0 mm 1 m/S 760 mmHg 43%
    16:00 +29°C° 0 mm 1 m/S 760 mmHg 42%
    17:00 +27°C° 0 mm 1 m/S 760 mmHg 51%
    18:00 +26°C° 0 mm 1 m/S 760 mmHg 60%
    19:00 +24°C° 0 mm 2 m/S 760 mmHg 69%
    20:00 +22°C° 0 mm 1 m/S 760 mmHg 73%
    21:00 +21°C° 0 mm 1 m/S 760 mmHg 76%
    22:00 +20°C° 0 mm 1 m/S 760 mmHg 80%
    23:00 +20°C° 0 mm 1 m/S 760 mmHg 80%
    Mehr zeigen